Fort Smith, AR

1:21 PM CDT on August 20, 2017 (GMT -0500)
Fort Smith Regional

Weather History for KFSM - June, 2014

Change the Weather History Date:

Tuesday, June 10, 2014

  Actual Average Record
Temperature  
Mean Temperature 72 °F 76 °F  
Max Temperature 80 °F 87 °F 102 °F (1911)
Min Temperature 64 °F 66 °F 52 °F (1955)
Cooling Degree Days 7 12  
Month to date cooling degree days 132 105  
Year to date cooling degree days 410 349  
Since 1 June cooling degree days 132 105  
Growing Degree Days 24 (Base 50)    
Moisture  
Dew Point 62 °F    
Average Humidity 73    
Maximum Humidity 87    
Minimum Humidity 58    
Precipitation  
Precipitation 0.08 in 0.15 in 5.41 in (1945)
Month to date precipitation 2.59 1.55  
Year to date precipitation 17.33 20.74  
Sea Level Pressure  
Sea Level Pressure 29.72 in    
Wind  
Wind Speed 10 mph (West)    
Max Wind Speed 22 mph    
Max Gust Speed 31 mph    
Visibility 10 miles    
Events Rain    
T = Trace of Precipitation, MM = Missing Value Source: NWS Daily Summary

Daily Weather History Graph

Daily Weather History Graph

Search for Another Location

Airport or City:

Trip Planner

Search our weather history database for the weather conditions in past years. The results will help you decide how hot, cold, wet, or windy it might be!

Date:

Astronomy

Jun. 10, 2014 Rise Set
Actual Time 6:02 AM CDT 8:32 PM CDT
Civil Twilight 5:32 AM CDT 9:01 PM CDT
Nautical Twilight 4:55 AM CDT 9:38 PM CDT
Astronomical Twilight 4:15 AM CDT 10:19 PM CDT
Moon 6:02 PM CDT (6/10) 4:02 AM CDT (6/10)
Length of Visible Light 15h 29m
Length of Day
14h 29m
Waxing Gibbous, 92% of the Moon is Illuminated
Jun 10
Waxing Gibbous
Jun 12
Full
Jun 19
Last Quarter
Jun 27
New
Jul 5
First Quarter

Hourly Weather History & Observations

Time (CDT) Temp. Dew Point Humidity Pressure Visibility Wind Dir Wind Speed Gust Speed Precip Events Conditions
12:53 AM 68.0 °F 63.0 °F 84% 29.67 in 10.0 mi Calm Calm - N/A   Scattered Clouds
1:53 AM 68.0 °F 64.0 °F 87% 29.68 in 10.0 mi East 4.6 mph - N/A   Overcast
2:53 AM 69.1 °F 64.0 °F 84% 29.66 in 10.0 mi East 3.5 mph - N/A   Overcast
3:53 AM 70.0 °F 63.0 °F 78% 29.65 in 10.0 mi SSW 3.5 mph - N/A   Overcast
4:53 AM 70.0 °F 63.0 °F 78% 29.65 in 10.0 mi SSW 6.9 mph - N/A   Overcast
5:53 AM 69.1 °F 62.1 °F 78% 29.65 in 10.0 mi SW 5.8 mph - N/A   Mostly Cloudy
6:53 AM 69.1 °F 62.1 °F 78% 29.67 in 10.0 mi SW 5.8 mph - N/A   Overcast
7:53 AM 69.1 °F 61.0 °F 75% 29.68 in 10.0 mi SW 8.1 mph - N/A   Overcast
8:53 AM 70.0 °F 62.1 °F 76% 29.70 in 10.0 mi WSW 6.9 mph - N/A   Overcast
9:49 AM 71.6 °F 60.8 °F 69% 29.72 in 10.0 mi WSW 9.2 mph - N/A   Mostly Cloudy
9:53 AM 71.6 °F 60.8 °F 69% 29.72 in 10.0 mi SW 9.2 mph - N/A   Mostly Cloudy
10:53 AM 75.0 °F 63.0 °F 66% 29.71 in 10.0 mi West 13.8 mph - N/A   Mostly Cloudy
11:53 AM 72.0 °F 64.0 °F 76% 29.72 in 6.0 mi West 10.4 mph - 0.05 in   Haze
12:53 PM 73.9 °F 63.0 °F 68% 29.72 in 10.0 mi WSW 13.8 mph - N/A   Overcast
1:53 PM 75.2 °F 62.6 °F 65% 29.73 in 10.0 mi WNW 12.7 mph - N/A   Overcast
2:53 PM 78.1 °F 62.1 °F 58% 29.70 in 10.0 mi West 15.0 mph - N/A   Mostly Cloudy
3:44 PM 71.1 °F 64.0 °F 78% 29.73 in 10.0 mi NW 10.4 mph - 0.03 in Rain Light Rain
3:53 PM 73.4 °F 64.4 °F 73% 29.73 in 10.0 mi West 10.4 mph - N/A Rain Light Rain
4:53 PM 77.0 °F 64.0 °F 64% 29.71 in 10.0 mi NW 15.0 mph 21.9 mph 0.00 in   Partly Cloudy
5:53 PM 77.0 °F 62.6 °F 61% 29.73 in 10.0 mi NW 11.5 mph - N/A   Partly Cloudy
6:53 PM 73.9 °F 61.0 °F 64% 29.74 in 10.0 mi NNW 18.4 mph 23.0 mph N/A   Overcast
7:53 PM 71.1 °F 59.0 °F 66% 29.75 in 10.0 mi NNW 11.5 mph - N/A   Overcast
8:53 PM 68.0 °F 59.0 °F 73% 29.76 in 10.0 mi NW 10.4 mph - N/A   Scattered Clouds
9:53 PM 68.0 °F 59.0 °F 73% 29.80 in 10.0 mi NW 12.7 mph - N/A   Overcast
10:26 PM 68.0 °F 60.1 °F 76% 29.80 in 10.0 mi WNW 9.2 mph - N/A   Mostly Cloudy
10:49 PM 68.0 °F 60.8 °F 78% 29.81 in 10.0 mi WNW 6.9 mph - N/A   Overcast
10:53 PM 68.0 °F 60.1 °F 76% 29.80 in 10.0 mi West 6.9 mph - N/A   Overcast
11:53 PM 66.9 °F 60.1 °F 79% 29.81 in 10.0 mi West 8.1 mph - N/A   Overcast